Flag for Colombia Weather past 2 weeks in Bucaramanga, Colombia

Now
68 °F

Partly cloudy.


Feels Like: 68 °F
Forecast: 70 / 85 °F
Wind: 3 mph from South

Location: Bucaramanga / Palonegro

Current Time: Feb 1, 2015 at 1:05:07 AM

Latest Report: Jan 31, 2015 at 11:00 PM


Visibility: N/A

Pressure: 30.02 "Hg

Humidity: 94%

Dew point: 66 °F

Location of BucaramangaLocation

Historic Weather in Bucaramanga — Graph

°F

Bucaramanga temperature yesterday

Maximum temperature yesterday: 77 °F (at 2:00 PM)
Minimum temperature yesterday: 68 °F (at 6:00 AM)
Average temperature yesterday: 71 °F

Past Weeks' High & Low Weather Summary

 TemperatureHumidityPressure
High79 °F (Jan 26, 3:00 PM)100% (Jan 17, 8:00 AM)30.08 "Hg (Jan 17, 8:00 AM)
Low54 °F (Jan 30, 7:00 AM)61% (Jan 30, 4:00 PM)29.88 "Hg (Jan 29, 4:00 PM)
Average71 °F83%29.98 "Hg
* Reported Jan 16 11:00 PM — Jan 31 11:00 PM, Bucaramanga, Weather by CustomWeather, © 2014

Note: Actual official high and low records may vary slightly from our data, if they occured in-between our weather recording intervals... More about our weather records

Advertising

Bucaramanga weather history for previous 24 hours

 ConditionsComfort  
Time TempWeatherWind HumidityBarometerVisibility
11:00 PM
Jan 31
68 °FPartly cloudy.3 mph94%30.02 "HgN/A
10:00 PM68 °FPartly cloudy.2 mph94%30.01 "HgN/A
9:00 PM70 °FPassing clouds.No wind94%30.00 "HgN/A
8:00 PM70 °FPassing clouds.No wind94%29.98 "HgN/A
7:00 PM70 °FPassing clouds.3 mph94%29.96 "HgN/A
6:00 PMN/A3 mphN/AN/AN/A
5:00 PM73 °FScattered clouds.6 mph78%29.91 "HgN/A
4:00 PM75 °FThunderstorms. Scattered clouds.7 mph69%29.91 "HgN/A
3:00 PM75 °FScattered clouds.7 mph74%29.92 "HgN/A
2:00 PM77 °FScattered clouds.5 mph69%29.94 "HgN/A
1:00 PM75 °FScattered clouds.6 mph74%29.96 "HgN/A
12:00 PM73 °FBroken clouds.3 mph83%29.99 "HgN/A
11:00 AM72 °FBroken clouds.5 mph88%30.02 "HgN/A
10:00 AM70 °FBroken clouds.6 mph88%30.02 "HgN/A
9:00 AM70 °FBroken clouds.2 mph94%30.01 "HgN/A
8:00 AM68 °FBroken clouds.2 mph94%30.00 "HgN/A
7:00 AM68 °FPartly sunny.No wind94%29.98 "HgN/A
6:00 AM68 °FPassing clouds.No wind94%29.97 "HgN/A
Weather by CustomWeather, © 2014

See weather overviewHow to use our weather pages